"Pseudo-MPEC" for CCV9U42

Created 2025 Feb 6 16:31:09 UT using Find_Orb

Click here for an explanation of pseudo-MPECs

 
 Astrometry: 
     CCV9U42*1C2025 01 27.47963413 08 29.634+02 45 09.94   ~1RCH 20.82GVNEOCPG96
     CCV9U42 1C2025 01 27.48480313 08 21.394+02 45 21.49   ~1RCH 21.01GVNEOCPG96
     CCV9U42 1C2025 01 27.48996613 08 13.330+02 45 33.70   ~1RCH 21.18GVNEOCPG96
     CCV9U42 1C2025 01 27.49513313 08 05.143+02 45 45.79   ~1RCH 21.47GVNEOCPG96
     CCV9U42 KC2025 01 27.54599813 06 45.932+02 47 40.45   ~1RDl 20.78GVNEOCPI52
     CCV9U42 KC2025 01 27.54850413 06 42.026+02 47 46.28   ~1RDl 20.89GVNEOCPI52
     CCV9U42 KC2025 01 27.55099813 06 38.142+02 47 51.94   ~1RDl 20.36GVNEOCPI52

Station data:
(G96) Mt. Lemmon Survey  (N32.442729 W110.788720)  US/Arizona.  Observer E.
   J. Christensen.  + 10K CCD.
(I52) Steward Observatory, Mt. Lemmon Station  (N32.442570 W110.788920)
   US/Arizona.  Observers T. A. Pruyne, B. M. Africano, E. J. Christensen, G.
   A. Farneth, D. C. Fuls, A. R. Gibbs, A. D. Grauer, H. Gröller, J. A.
   Johnson, R. A. Kowalski, S. M. Larson, G. J. Leonard, D. Rankin, R. L.
   Seaman, F. C. Shelly, K. W. Wierzchoś. 1.0-m prime focus + CCD.

Orbital elements:  CCV9U42
   Perihelion 2024 Dec 28.64988 TT = 15:35:49 (JD 2460673.14988)
Epoch 2025 Jan 28.0 TT = JDT 2460703.5   Earth MOID: 0.0008      AutoNEOCP
M  25.08916817                      (J2000 ecliptic)
n   0.82665793     Peri.    4.24093
a   1.12439478     Node    91.09651
e   0.1383894      Incl.    0.11015
P   1.192/435.480d H   29.60    G   0.15   q 0.96879037  Q 1.27999919
From 7 observations 2025 Jan. 27 (1.7 hr); mean residual 0".51
Residuals in arcseconds: 
250127 G96  .25+  .44+    250127 G96  .37-  .08-    250127 I52  1.1-  .33+    
250127 G96  .96-  .21-    250127 I52  .85+  .25-    
250127 G96  .26+  .12-    250127 I52  .11-  .10+    

Ephemerides (geocentric):
Date (UTC) HH   RA             Dec           delta  r     elong  mag
---- --------  ------------   ------------  ------ ------ -----  ---
2025 02 06 17  11 52 22.696   +05 20 56.04  .01947 1.0015 141.5 22.6
2025 02 06 18  11 52 15.012   +05 21 11.66  .01953 1.0016 141.6 22.6
2025 02 06 19  11 52 07.360   +05 21 27.23  .01958 1.0017 141.7 22.6
2025 02 06 20  11 51 59.740   +05 21 42.74  .01963 1.0017 141.7 22.6
2025 02 06 21  11 51 52.151   +05 21 58.20  .01968 1.0018 141.8 22.6
2025 02 06 22  11 51 44.595   +05 22 13.60  .01973 1.0018 141.9 22.6
2025 02 06 23  11 51 37.069   +05 22 28.96  .01979 1.0019 141.9 22.6
2025 02 07 00  11 51 29.574   +05 22 44.26  .01984 1.0020 142.0 22.6
2025 02 07 01  11 51 22.110   +05 22 59.51  .01989 1.0020 142.1 22.6
2025 02 07 02  11 51 14.677   +05 23 14.70  .01994 1.0021 142.2 22.6
2025 02 07 03  11 51 07.273   +05 23 29.85  .01999 1.0022 142.2 22.6
2025 02 07 04  11 50 59.900   +05 23 44.95  .02004 1.0022 142.3 22.6
2025 02 07 05  11 50 52.557   +05 24 00.00  .02010 1.0023 142.4 22.6
2025 02 07 06  11 50 45.243   +05 24 15.00  .02015 1.0023 142.4 22.6
2025 02 07 07  11 50 37.958   +05 24 29.95  .02020 1.0024 142.5 22.6
2025 02 07 08  11 50 30.702   +05 24 44.85  .02025 1.0025 142.6 22.6
2025 02 07 09  11 50 23.476   +05 24 59.71  .02030 1.0025 142.7 22.6
2025 02 07 10  11 50 16.277   +05 25 14.52  .02036 1.0026 142.7 22.6
2025 02 07 11  11 50 09.108   +05 25 29.28  .02041 1.0027 142.8 22.6
2025 02 07 12  11 50 01.966   +05 25 43.99  .02046 1.0027 142.9 22.6
2025 02 07 13  11 49 54.852   +05 25 58.66  .02051 1.0028 143.0 22.6
2025 02 07 14  11 49 47.767   +05 26 13.28  .02056 1.0029 143.0 22.6
2025 02 07 15  11 49 40.708   +05 26 27.86  .02061 1.0029 143.1 22.6
2025 02 07 16  11 49 33.677   +05 26 42.40  .02067 1.0030 143.2 22.7
2025 02 07 17  11 49 26.673   +05 26 56.88  .02072 1.0030 143.2 22.7
2025 02 07 18  11 49 19.696   +05 27 11.33  .02077 1.0031 143.3 22.7
2025 02 07 19  11 49 12.745   +05 27 25.73  .02082 1.0032 143.4 22.7
2025 02 07 20  11 49 05.821   +05 27 40.09  .02087 1.0032 143.4 22.7
2025 02 07 21  11 48 58.924   +05 27 54.41  .02093 1.0033 143.5 22.7
2025 02 07 22  11 48 52.052   +05 28 08.68  .02098 1.0034 143.6 22.7
2025 02 07 23  11 48 45.206   +05 28 22.91  .02103 1.0034 143.7 22.7
2025 02 08 00  11 48 38.386   +05 28 37.10  .02108 1.0035 143.7 22.7
2025 02 08 01  11 48 31.591   +05 28 51.25  .02113 1.0036 143.8 22.7
2025 02 08 02  11 48 24.822   +05 29 05.36  .02119 1.0036 143.9 22.7
2025 02 08 03  11 48 18.078   +05 29 19.43  .02124 1.0037 143.9 22.7
2025 02 08 04  11 48 11.358   +05 29 33.46  .02129 1.0037 144.0 22.7
2025 02 08 05  11 48 04.664   +05 29 47.45  .02134 1.0038 144.1 22.7
2025 02 08 06  11 47 57.993   +05 30 01.40  .02140 1.0039 144.1 22.7
2025 02 08 07  11 47 51.347   +05 30 15.32  .02145 1.0039 144.2 22.7
2025 02 08 08  11 47 44.726   +05 30 29.19  .02150 1.0040 144.3 22.7
2025 02 08 09  11 47 38.128   +05 30 43.03  .02155 1.0041 144.4 22.7
2025 02 08 10  11 47 31.554   +05 30 56.82  .02160 1.0041 144.4 22.7
2025 02 08 11  11 47 25.003   +05 31 10.59  .02166 1.0042 144.5 22.7
2025 02 08 12  11 47 18.476   +05 31 24.31  .02171 1.0043 144.6 22.7
2025 02 08 13  11 47 11.973   +05 31 38.00  .02176 1.0043 144.6 22.7
2025 02 08 14  11 47 05.492   +05 31 51.65  .02181 1.0044 144.7 22.7
2025 02 08 15  11 46 59.034   +05 32 05.27  .02186 1.0045 144.8 22.7
2025 02 08 16  11 46 52.599   +05 32 18.85  .02192 1.0045 144.8 22.7